User: anonymous   Login
Location: Rowland
(34.5359°N, 79.2929°W)
Time: 12:29:17
(UTC+00:00)
Language:

deb Delta 126 - Orbit

View from above orbital plane
View from above orbital plane
View from above satellite
View from above satellite

Ground track
Ground track

The orbit data is extracted from the following two-line orbital elements,

1 10769U 76077BS  23086.89665377  .00000088  00000-0  83073-3 0  9990
2 10769 101.6646  54.7107 0096630 229.5696 190.6173 12.52598812132035
Epoch (UTC): 27 March 2023 21:31:10
Eccentricity: 0.0096630
inclination: 101.6646°
perigee height: 1378 km
apogee height: 1529 km
right ascension of ascending node: 54.7107°
argument of perigee: 229.5696°
revolutions per day: 12.52598812
mean anomaly at epoch: 190.6173°
orbit number at epoch: 13203

The dashed part of the orbit path shows where the satellite is in the earth's shadow,  

DLR